Wind_Speed
10 9 7 7 9 11 11 11 12 12 12 11 10 9 8 9 9 10 11 12 11 11 11 12 12 13 13 15 18 19 21 21 21 22 23 23 23 22 21 21 22 24 25 25 24 23 22 21 22 24 25 25 25 24 24 25 25 25 25 25 24 24 23 23 22 22 22 22 22 22 22 23 24 25
11 12 11 8 7 7 7 7 8 10 10 9 7 7 7 8 10 11 12 14 13 13 13 12 11 12 14 17 19 20 22 23 22 22 22 22 22 21 21 21 23 25 26 27 27 26 25 23 23 23 24 25 25 25 25 26 26 27 27 27 27 26 25 24 23 23 23 23 23 22 22 23 23 24
12 13 14 11 9 10 10 9 9 10 11 10 9 8 8 8 9 10 12 16 16 13 14 14 12 13 15 18 20 20 20 22 23 23 22 21 19 18 19 20 21 23 25 26 27 27 26 25 24 24 24 25 25 26 26 27 27 28 28 28 29 29 29 27 25 25 24 25 24 24 23 23 22 23
12 12 12 12 13 13 13 12 11 10 11 10 10 10 10 10 11 11 12 16 18 15 14 16 16 15 15 16 18 19 19 20 21 23 23 21 20 19 21 21 22 22 22 23 24 25 25 24 24 24 25 25 26 26 27 28 28 29 29 30 30 30 30 30 29 27 26 26 25 25 24 24 24 23
13 12 12 13 13 13 12 11 9 9 10 11 10 10 11 11 11 11 12 16 19 19 17 17 18 17 16 17 17 17 19 20 21 23 23 23 23 23 23 22 22 21 21 22 22 22 23 23 24 24 25 26 26 26 27 28 30 30 30 30 30 31 31 32 31 30 28 27 26 25 25 24 24 24
14 13 13 13 13 12 11 10 10 10 11 11 11 11 11 12 11 11 13 16 19 21 20 20 20 19 19 19 20 20 21 21 22 23 24 24 24 24 23 22 21 21 21 22 22 22 21 22 23 23 24 25 26 27 27 28 29 31 31 31 31 31 32 32 32 32 31 29 27 26 25 25 25 25
15 15 15 13 12 12 11 11 11 11 11 11 11 11 11 11 11 11 13 15 18 20 21 21 21 22 22 22 23 24 23 23 24 24 24 23 24 24 24 24 23 23 22 22 22 22 21 20 20 21 22 23 24 26 26 26 26 27 29 30 31 32 32 33 33 33 33 32 30 28 27 27 27 25
17 16 16 14 13 12 12 12 12 12 12 11 11 11 11 11 11 12 13 14 16 19 21 23 23 24 25 25 25 24 24 24 24 23 23 23 24 24 25 25 25 24 23 23 23 23 22 21 21 23 24 25 26 26 26 27 26 26 26 28 30 32 33 34 35 35 35 34 33 32 31 30 29 27
18 18 17 16 14 12 12 13 14 14 13 12 12 12 11 11 12 14 15 16 16 18 21 24 25 25 25 25 25 24 24 25 25 25 24 23 24 24 25 26 26 26 25 25 23 23 23 24 26 27 27 27 27 28 29 30 29 28 27 27 28 30 32 34 36 37 38 37 36 35 34 33 32 30
20 19 18 16 14 14 14 15 15 15 14 14 15 14 12 12 14 15 16 17 18 20 22 25 27 27 26 25 26 27 26 25 26 26 25 24 23 22 22 23 24 24 24 25 25 25 26 28 30 30 29 29 30 31 32 31 30 29 29 29 29 30 32 32 32 34 35 36 37 37 36 36 35 35
22 20 19 18 17 16 16 16 17 16 15 16 16 15 14 14 15 16 17 19 21 23 25 26 28 28 28 27 27 28 27 25 25 23 23 24 22 20 20 22 23 22 23 24 25 27 29 30 31 31 31 31 31 32 32 32 32 32 32 32 32 33 34 33 32 31 32 33 35 36 38 38 38 37
23 21 20 19 18 17 16 17 17 17 16 16 16 15 15 16 17 18 20 22 24 25 27 28 29 29 29 28 27 28 26 24 24 23 23 24 23 21 22 23 23 22 23 24 26 27 29 30 30 30 30 31 31 32 33 34 36 37 37 36 34 33 34 34 34 33 33 32 33 35 37 37 36 37
23 22 21 19 17 17 17 17 16 16 15 16 16 16 16 18 19 21 22 23 25 26 27 29 30 29 28 27 26 25 23 22 23 23 23 23 23 23 24 24 23 23 25 27 28 29 30 30 30 31 31 33 34 35 36 37 38 38 36 34 32 32 33 34 34 34 33 33 33 35 37 37 36 36
23 22 21 18 17 18 19 19 18 17 16 17 18 19 19 19 21 22 24 25 25 25 26 28 28 28 27 26 24 22 21 20 20 20 21 22 24 25 25 26 26 26 27 28 29 31 32 32 33 34 35 37 38 39 39 38 38 37 35 33 34 35 35 35 35 35 35 35 36 38 38 38 36 37
22 21 21 19 19 20 20 20 20 19 19 20 22 22 21 20 21 23 25 26 26 25 25 26 27 27 27 27 24 22 20 19 20 21 21 23 25 26 27 28 29 28 27 28 31 35 36 36 37 38 39 39 37 35 34 32 31 31 30 30 31 32 33 33 33 33 33 34 35 36 37 37 38 41
22 23 22 20 20 22 21 21 21 22 22 24 25 24 23 22 23 24 25 26 25 23 23 25 26 26 26 24 22 21 20 21 23 24 24 25 27 27 27 28 29 29 29 32 36 41 41 38 39 38 35 32 29 28 27 26 26 26 27 29 29 29 29 30 31 32 34 35 37 37 39 41 43 45
22 23 22 20 21 22 21 20 21 23 24 24 24 24 23 24 25 24 24 24 24 22 22 24 25 24 23 23 23 22 23 24 25 26 28 29 29 29 30 31 33 33 34 35 39 42 40 35 33 32 29 28 28 27 26 25 26 28 29 30 30 30 32 33 34 36 37 39 41 41 43 45 47 49
21 21 21 21 23 23 21 20 21 23 24 23 23 24 25 25 25 24 24 25 23 22 22 23 24 23 22 22 22 22 22 24 26 28 32 33 34 34 34 34 34 33 31 30 33 38 36 31 30 31 30 30 30 30 30 30 30 31 32 34 35 35 35 35 36 38 39 41 43 44 47 49 51 54
21 21 21 22 24 23 21 20 20 22 24 25 25 26 26 25 25 25 24 22 21 22 23 24 24 23 22 21 21 22 24 26 29 31 33 34 33 32 31 31 30 29 27 26 28 34 35 30 28 30 30 32 33 33 34 34 34 36 37 38 36 33 31 31 33 35 38 41 44 47 49 51 53 55
20 22 24 24 24 23 22 22 21 22 25 26 26 27 26 25 25 24 21 19 19 21 22 22 22 21 21 21 22 24 27 29 29 28 27 26 26 26 27 28 28 27 27 26 25 30 33 30 29 31 32 33 34 35 36 37 37 38 37 35 33 30 30 32 35 39 42 45 47 49 51 51 52 52
20 23 24 24 24 23 23 24 23 23 25 26 26 25 25 23 23 22 19 18 17 17 17 18 20 21 21 21 22 24 27 26 22 19 20 21 23 25 27 29 28 27 29 27 23 26 32 31 30 32 33 34 36 38 40 39 37 35 34 33 32 32 33 36 40 44 47 48 49 51 51 49 47 46
21 23 24 25 25 24 24 25 25 24 25 25 24 24 24 22 21 19 18 16 15 15 17 19 20 21 22 23 24 25 24 19 16 18 22 24 25 27 28 28 28 30 29 25 21 24 29 29 28 32 36 39 40 39 38 35 33 32 32 32 32 33 36 41 45 47 49 50 51 50 48 45 43 41
23 25 26 26 25 25 25 25 25 24 25 25 24 24 23 22 20 18 18 17 17 18 20 21 21 23 24 25 23 21 18 16 17 22 24 23 23 26 27 27 29 29 27 21 19 25 30 31 33 35 37 40 40 37 34 32 32 33 34 35 35 37 41 45 47 49 50 50 47 45 43 40 38 38
24 26 27 27 26 26 25 24 23 23 24 24 23 22 21 19 19 19 19 19 19 20 21 21 22 23 22 20 17 16 17 19 20 20 19 19 20 23 24 25 25 26 27 27 28 33 35 35 35 33 32 35 37 37 36 35 35 37 38 38 38 40 44 46 48 49 48 45 41 40 39 38 35 36
25 26 27 27 27 26 24 23 22 21 21 21 20 18 18 18 19 19 18 18 18 18 19 20 20 19 17 15 15 15 17 17 17 17 18 18 18 19 22 25 27 32 35 34 32 33 33 32 32 33 32 33 36 38 40 40 40 39 39 39 39 41 45 46 47 47 44 40 38 37 37 36 36 37
24 25 26 26 26 25 24 23 23 21 19 18 17 16 18 20 19 18 18 17 17 17 18 18 18 15 14 15 15 16 16 17 17 19 19 20 22 24 27 30 32 34 34 30 26 27 30 31 32 33 34 34 36 39 42 43 41 40 40 40 41 42 44 44 44 44 41 38 37 36 35 35 35 35
22 23 23 24 23 24 23 23 23 19 17 16 17 18 20 20 19 19 17 17 16 17 17 15 13 12 13 15 16 17 19 20 21 22 24 26 27 27 25 24 24 26 28 28 28 29 30 31 31 32 32 34 37 40 41 41 41 42 44 44 42 41 41 42 42 41 39 37 37 35 34 34 34 33
21 22 23 23 21 20 20 21 20 17 16 18 20 21 22 21 21 19 18 17 17 16 14 12 11 13 15 16 17 19 21 22 24 25 26 25 23 21 20 21 22 25 27 27 27 26 26 27 29 29 30 33 36 38 38 39 40 43 45 45 43 41 41 41 40 39 39 39 38 36 35 35 35 33
22 22 22 21 19 17 17 18 18 18 18 20 20 21 21 20 19 17 15 14 13 12 11 10 11 15 17 17 17 20 22 23 23 23 22 21 20 20 21 22 23 23 23 22 21 21 21 24 27 27 29 32 34 35 34 36 40 42 43 45 44 43 41 40 39 39 40 40 39 39 38 36 34 33
24 23 20 18 16 16 17 18 18 17 16 15 15 15 14 14 12 11 11 11 9 9 10 12 15 19 19 18 18 21 23 22 20 20 20 20 21 21 22 24 25 23 21 21 21 20 21 23 25 27 29 32 33 31 31 34 40 43 44 44 44 44 42 41 41 42 41 41 41 41 40 38 35 32
24 21 18 17 16 17 16 15 14 13 12 10 10 11 10 8 7 7 8 9 10 11 13 16 20 22 19 18 20 24 24 21 19 19 19 20 22 22 23 25 27 26 24 23 22 22 22 22 24 27 29 31 31 30 30 33 38 43 44 44 43 44 43 43 44 44 43 42 42 41 40 39 36 30
20 18 16 16 15 14 12 10 11 12 12 11 10 11 11 9 8 8 9 9 10 13 15 17 19 19 19 21 24 25 22 20 20 19 19 20 22 23 23 25 26 27 26 25 24 24 23 22 24 27 29 30 29 28 30 33 37 40 43 43 44 44 43 44 45 45 43 42 42 42 40 39 35 29
15 15 13 10 10 10 10 13 15 14 13 12 13 13 13 10 9 9 10 10 12 15 16 17 18 20 22 25 25 22 20 20 19 18 19 20 21 21 22 24 25 25 25 26 27 26 24 23 25 28 29 28 26 27 30 33 36 39 41 44 46 46 45 44 45 44 42 40 41 41 41 40 35 29
13 13 11 8 8 10 13 17 18 15 14 14 14 14 13 11 10 10 12 13 14 14 15 17 20 23 25 25 23 20 19 19 18 18 19 19 19 21 22 23 23 24 25 26 27 27 25 24 26 31 32 30 27 27 28 30 34 38 41 43 44 45 46 46 45 43 40 37 38 39 41 40 35 28
14 13 11 10 10 12 13 15 15 14 14 14 13 13 13 12 11 11 12 13 13 13 15 18 21 24 25 23 20 18 17 18 19 19 19 18 19 20 21 21 23 24 25 26 26 25 24 24 27 31 34 34 33 32 28 27 31 37 40 41 42 43 45 46 45 42 39 36 36 37 38 40 35 26
15 13 12 12 12 13 13 13 13 12 13 12 12 11 11 10 10 11 12 13 14 16 18 21 24 23 21 18 16 16 17 18 18 18 18 18 19 19 19 21 22 23 24 25 25 23 23 24 26 29 31 34 38 39 35 30 30 32 37 41 42 42 44 45 43 41 38 36 37 37 37 39 36 26
13 13 12 12 11 12 13 12 12 11 10 10 9 8 9 9 10 11 14 16 18 20 21 21 19 16 14 14 15 16 16 17 17 17 18 18 18 19 20 21 22 23 24 25 24 23 23 24 25 27 30 33 36 39 40 37 32 30 33 38 41 41 42 43 42 40 38 37 37 37 38 38 34 25
12 12 11 10 10 11 12 11 11 12 12 12 10 9 10 11 11 13 17 18 19 19 17 15 13 12 13 14 15 15 16 16 16 17 18 18 18 19 20 22 22 23 25 25 24 23 23 23 24 27 31 33 34 36 39 39 35 32 32 35 39 40 40 39 39 40 40 38 38 39 37 33 28 23
15 14 12 11 10 10 9 10 10 11 12 13 13 13 13 12 10 12 14 14 13 15 15 15 15 16 15 13 13 14 14 15 16 17 17 17 18 19 20 21 23 24 25 24 24 23 22 22 24 28 31 32 32 33 35 35 35 34 34 34 35 38 39 37 36 37 37 37 40 40 33 23 19 17
14 12 10 10 11 11 11 11 10 9 9 10 12 14 16 16 14 14 14 13 13 16 18 19 18 16 13 11 12 13 13 14 15 16 17 17 18 19 20 21 23 23 23 23 24 24 22 23 26 28 30 30 30 31 33 33 33 34 34 33 33 36 38 36 33 33 33 33 37 39 33 21 14 12
8 7 8 10 11 11 11 11 11 10 9 10 11 12 14 15 16 17 17 16 16 15 14 13 11 9 9 10 11 12 13 14 15 15 16 17 18 19 20 21 22 22 22 24 24 24 24 25 26 25 27 29 30 31 33 34 34 35 36 35 34 37 38 36 30 28 28 28 31 35 33 23 14 12
8 8 8 10 11 11 10 11 12 12 13 13 13 13 13 12 12 13 14 15 15 13 10 8 7 7 9 10 11 12 13 14 15 15 16 17 18 19 20 21 21 22 23 23 24 24 25 25 23 23 25 27 28 30 33 33 32 33 35 36 36 38 41 38 30 22 21 23 26 29 30 26 19 14
9 9 9 10 11 11 11 12 14 15 16 16 16 17 16 14 12 12 13 13 11 10 10 9 9 10 10 10 11 12 12 13 14 15 16 17 18 19 20 21 21 22 22 22 23 25 25 23 21 22 24 26 27 29 31 30 30 31 34 36 38 40 43 42 33 21 16 17 18 19 22 23 21 18
8 8 8 8 9 10 11 12 14 16 15 13 12 11 10 11 12 12 12 11 10 9 10 10 10 9 9 10 12 13 12 12 13 15 16 17 17 18 19 20 20 21 21 22 24 26 25 23 21 21 23 25 27 28 29 28 29 31 32 34 38 41 44 45 38 26 18 15 14 15 19 21 16 12
9 7 7 6 7 10 10 10 11 11 10 9 8 8 9 10 11 11 10 9 9 9 9 9 9 9 10 12 13 13 12 13 14 15 16 16 16 18 19 19 20 21 21 22 25 26 25 24 22 21 22 24 26 28 28 27 28 29 30 33 37 40 42 43 40 32 26 21 16 16 21 24 21 14
Wind_Direction
203 214 232 244 225 211 215 216 217 231 242 244 247 252 256 260 262 263 266 273 276 276 277 282 288 287 282 284 290 293 294 295 295 295 295 297 300 300 298 297 297 297 297 296 295 292 288 285 282 282 282 283 282 278 274 272 271 272 273 274 274 274 275 276 276 278 278 279 279 279 279 277 275 272
202 207 214 231 240 232 232 229 230 244 255 263 262 259 260 259 258 258 262 270 276 280 285 287 285 286 286 284 285 287 288 289 292 293 291 290 290 287 285 287 291 295 296 296 296 295 292 289 285 282 281 282 283 281 277 273 270 269 269 270 272 272 272 272 273 274 275 277 277 278 278 278 277 275
209 211 208 211 224 229 229 227 229 241 256 269 274 275 276 272 271 268 265 271 279 285 288 287 279 277 279 280 282 284 283 284 287 289 290 290 287 281 278 283 287 289 289 291 292 292 292 291 289 286 284 283 284 283 281 278 274 271 269 268 269 271 272 271 271 271 272 273 275 276 277 278 278 277
213 214 210 210 220 226 229 233 237 241 252 263 267 273 274 269 271 274 269 273 282 287 284 284 287 286 281 277 279 284 287 287 284 284 287 288 286 283 282 286 287 284 282 283 285 286 286 288 289 288 286 284 283 283 282 281 279 276 273 270 268 268 269 271 271 270 269 270 271 274 275 277 278 279
214 215 220 222 226 232 237 244 249 249 252 259 263 267 269 271 276 280 279 280 286 291 290 290 295 297 292 287 286 290 294 294 288 285 286 285 284 284 285 287 288 285 283 283 282 281 281 283 285 286 285 283 283 281 279 278 278 276 274 272 269 267 266 267 268 269 269 269 269 270 271 273 275 277
219 216 224 229 232 237 241 244 250 252 253 257 261 261 263 268 271 273 278 281 285 292 298 300 301 301 301 301 303 303 298 291 285 283 285 286 285 286 286 287 286 285 284 284 283 283 285 285 284 283 283 283 284 283 281 279 277 276 275 273 270 268 265 265 266 267 268 268 267 267 268 269 270 273
224 220 224 228 231 237 240 243 247 249 252 257 260 263 265 265 263 263 268 276 284 294 302 305 305 306 307 306 305 303 297 291 287 285 285 286 286 286 286 286 286 285 283 281 281 284 286 286 286 286 287 288 289 288 287 285 282 280 279 277 275 271 268 266 265 266 267 267 266 265 267 268 267 270
226 225 225 226 230 236 240 245 251 251 255 261 264 266 269 272 276 276 274 280 289 299 304 306 309 311 310 306 304 302 298 295 294 292 291 291 290 288 285 284 286 287 285 282 282 284 285 286 289 293 293 291 290 290 291 290 287 285 283 281 278 274 270 268 266 265 265 265 265 265 266 266 266 267
228 227 228 229 230 234 238 245 253 257 257 259 261 265 268 272 279 282 285 290 296 300 303 306 308 309 308 304 301 301 300 298 298 297 295 295 294 291 286 283 285 287 286 284 285 285 285 287 291 294 294 291 289 289 291 291 289 286 285 282 278 275 272 269 268 267 265 264 264 264 265 265 264 265
229 229 231 233 233 234 236 241 249 253 251 251 256 262 266 268 273 280 287 293 297 300 302 304 305 306 307 304 301 303 304 300 298 296 295 296 296 291 286 284 285 286 283 281 282 282 284 287 289 292 293 291 290 290 291 291 289 287 285 284 282 280 277 273 272 271 269 266 264 263 262 262 264 264
230 232 233 235 237 238 239 241 245 245 244 248 254 258 260 266 273 281 286 290 294 298 299 301 302 303 305 305 303 306 308 304 301 300 297 298 297 291 289 291 290 288 284 282 282 283 285 287 288 290 291 291 292 293 293 293 293 291 290 288 286 283 280 276 274 273 272 268 265 262 260 262 264 263
230 232 236 239 242 244 246 248 247 244 242 245 252 257 262 270 277 282 286 289 292 295 297 298 299 301 303 303 303 305 306 304 303 302 300 299 297 293 291 292 290 289 288 288 288 289 289 289 289 289 289 289 291 292 292 293 294 293 292 291 287 283 280 276 274 275 275 273 268 264 263 265 266 263
229 232 237 240 242 246 252 255 255 252 248 249 255 263 270 276 281 283 286 289 291 293 295 295 296 298 298 297 298 300 298 296 297 298 299 299 297 294 293 292 291 291 292 293 294 295 294 292 289 288 288 290 292 291 291 291 290 289 290 288 285 282 280 278 276 277 276 275 273 271 270 271 271 268
230 233 238 241 246 247 248 254 259 260 256 255 260 267 272 277 281 283 285 289 291 292 291 292 293 292 290 291 292 290 289 291 292 290 290 290 290 292 293 293 295 296 296 296 294 294 294 291 289 290 291 293 294 292 292 290 286 284 282 279 277 278 277 277 277 277 276 276 275 274 274 275 275 276
230 232 235 240 248 249 245 245 251 256 256 256 261 267 272 277 282 284 285 287 289 288 288 290 291 289 288 290 291 289 289 290 287 284 284 286 290 293 292 293 295 296 297 294 291 291 293 291 290 291 293 295 296 295 295 293 289 284 280 279 282 283 281 280 279 278 278 279 279 278 276 277 279 282
230 234 238 241 246 249 247 242 244 247 250 253 259 265 271 278 281 282 284 286 286 286 288 290 292 292 292 293 292 290 289 287 285 285 286 289 292 292 290 290 291 293 294 292 291 292 293 293 292 294 296 298 299 297 295 294 292 291 292 294 295 293 289 286 283 281 280 281 281 279 277 278 280 282
237 240 241 243 245 244 242 241 244 247 250 255 260 265 272 279 282 283 285 285 283 285 289 289 291 294 294 291 290 289 285 283 284 285 289 292 292 289 289 289 290 293 295 295 294 294 296 298 298 299 303 304 302 301 299 298 297 296 295 294 292 290 287 283 281 280 279 279 280 278 277 277 278 278
249 246 241 246 249 243 238 240 244 249 254 259 264 269 276 281 281 284 287 286 285 289 291 288 289 293 291 287 285 282 279 279 283 288 292 293 292 291 292 293 296 299 301 304 300 296 299 305 303 302 307 307 304 302 299 296 292 289 286 285 286 286 283 279 277 278 278 278 279 279 279 279 279 279
254 244 240 249 251 244 242 246 251 254 257 264 270 274 277 278 279 284 288 286 285 288 287 285 286 289 287 284 282 281 282 285 288 290 292 292 293 297 299 302 304 305 309 313 302 292 297 305 301 299 303 301 298 296 293 290 286 285 286 288 289 290 289 288 288 287 287 286 284 284 284 283 282 281
255 240 239 249 251 247 246 250 256 259 261 267 273 276 277 278 282 288 288 282 279 279 281 284 287 287 285 282 281 281 284 287 290 291 292 294 300 303 303 303 304 304 306 311 302 291 293 297 296 296 297 295 293 291 289 288 289 290 292 294 295 295 294 295 295 295 295 294 292 290 289 287 284 281
252 239 241 248 251 251 250 253 258 260 261 267 274 277 278 279 283 287 285 282 283 284 283 283 282 281 279 278 279 283 286 290 294 293 294 303 308 301 295 296 298 297 299 306 305 292 288 292 295 296 294 291 290 290 290 293 295 296 296 296 294 292 293 294 297 299 300 298 296 294 292 289 286 283
245 240 246 250 250 253 254 255 258 259 261 269 274 276 277 277 277 280 280 279 279 277 275 274 274 277 281 285 289 293 294 297 301 295 295 304 304 293 289 291 293 294 298 305 303 290 288 293 296 295 294 293 292 293 295 298 298 297 297 296 294 292 294 299 302 303 303 300 298 296 293 290 287 285
243 244 250 252 253 257 257 256 257 260 264 271 274 273 274 273 273 277 279 276 270 266 267 272 276 280 286 292 296 299 300 303 305 301 301 303 296 289 291 293 292 294 297 298 292 287 290 295 296 296 298 297 297 299 300 299 299 300 301 301 299 298 301 305 306 306 304 302 299 296 295 293 290 285
244 248 251 253 256 260 260 258 260 264 269 273 275 273 270 270 275 280 281 278 274 273 275 279 283 287 292 297 299 300 298 298 299 302 305 306 302 299 297 293 290 289 286 284 285 289 293 297 297 298 299 297 297 300 302 301 302 304 306 306 304 304 307 309 308 306 304 302 300 300 299 296 292 286
246 249 252 255 258 260 261 262 265 270 273 274 272 269 271 277 283 285 284 283 282 282 284 287 290 292 293 292 290 291 292 290 289 290 292 296 296 290 285 283 284 284 282 285 291 295 298 300 301 300 300 297 296 298 302 304 305 307 310 310 307 308 310 310 308 306 304 303 303 303 300 297 293 288
247 250 252 256 259 259 261 267 272 274 275 272 269 273 281 286 289 289 289 291 290 289 290 291 293 291 286 284 289 292 290 287 284 282 278 276 274 271 272 277 282 285 289 297 304 303 301 301 300 299 298 297 298 300 302 304 308 313 315 312 310 311 313 312 311 307 304 304 306 304 299 294 290 286
246 251 253 254 255 257 261 267 271 272 272 272 274 282 287 289 292 294 294 294 292 290 290 292 297 299 294 293 295 293 288 287 286 285 281 280 280 282 285 289 293 296 301 306 307 304 300 297 297 298 297 296 297 299 301 304 311 317 317 314 314 316 317 317 315 308 305 306 307 305 300 293 289 286
241 245 248 249 252 258 263 266 269 271 274 277 282 288 291 294 297 298 298 297 294 292 294 299 304 301 297 296 292 289 289 290 288 286 287 290 295 301 307 309 306 303 302 303 302 302 299 297 299 301 299 296 296 298 303 310 315 318 317 317 318 321 322 322 319 313 310 310 308 305 301 295 290 287
237 239 245 251 258 264 267 269 271 274 279 286 293 298 300 301 301 303 307 306 297 289 290 291 287 284 283 284 284 287 292 295 296 298 303 309 313 313 311 307 303 302 305 309 311 312 310 306 305 303 301 300 301 303 308 313 315 316 317 318 319 322 324 324 321 317 314 311 308 305 303 299 294 288
236 242 250 257 260 263 267 270 273 279 288 298 309 318 317 309 305 311 320 316 305 299 298 297 295 294 290 284 287 296 304 308 311 314 314 312 310 308 306 306 308 313 320 324 326 325 318 311 306 302 301 304 306 307 311 312 313 316 321 321 320 321 324 324 323 321 318 314 310 306 304 302 299 289
238 245 251 254 254 259 266 270 278 291 303 312 323 332 330 317 310 323 328 324 321 317 309 303 305 308 303 296 299 309 314 312 310 310 309 306 305 307 309 310 313 319 325 328 326 322 314 308 304 304 307 309 308 308 312 312 312 317 322 325 324 322 323 325 325 323 320 316 311 307 306 306 301 290
239 241 244 248 254 263 270 280 294 303 306 307 311 316 316 312 313 321 323 318 312 306 298 295 299 302 300 301 306 311 311 306 306 309 308 305 305 309 314 314 314 318 322 322 319 316 314 311 309 310 312 311 309 310 313 315 319 322 325 327 327 325 325 327 326 322 319 317 313 309 309 308 303 294
230 237 247 258 274 287 292 298 301 300 298 300 303 305 309 307 302 304 301 293 296 301 297 288 284 286 294 304 310 310 305 304 307 308 307 307 310 314 316 314 314 317 317 316 316 318 319 318 315 316 317 314 311 312 312 316 324 328 326 325 327 328 328 328 325 322 319 318 315 312 310 307 302 294
209 235 259 276 287 291 293 297 298 295 294 297 299 301 303 296 287 288 288 287 294 296 283 271 271 280 295 307 308 302 301 304 306 308 311 314 316 315 314 314 314 315 315 315 316 319 321 320 318 321 322 318 313 311 311 315 323 326 326 326 328 329 329 328 326 323 320 319 317 313 310 307 301 292
196 225 253 261 263 269 276 284 289 288 287 286 284 286 291 290 289 288 279 276 279 274 266 271 283 293 300 304 303 301 304 305 306 310 315 317 314 314 315 314 313 314 316 316 317 319 321 321 321 322 324 324 320 316 316 320 323 324 326 329 332 332 331 328 327 325 323 322 321 317 312 309 302 290
200 220 241 249 255 264 269 272 276 282 284 282 278 280 281 277 281 287 284 281 282 281 281 289 296 299 300 302 303 303 303 303 306 312 316 316 315 316 316 313 314 317 318 317 319 324 325 323 322 322 325 328 327 323 321 323 327 329 330 332 335 336 333 329 328 328 327 325 323 320 316 311 302 290
221 234 249 258 266 269 268 269 276 282 280 274 275 285 282 271 273 289 297 297 294 293 294 296 297 300 302 302 299 297 298 304 311 313 314 316 318 317 316 316 317 318 318 319 325 330 328 323 323 325 327 329 329 325 322 322 329 339 340 336 336 338 336 331 329 330 329 328 325 322 319 314 302 288
234 241 251 260 269 271 269 267 269 272 273 271 271 277 284 284 282 284 289 293 297 298 296 293 291 292 292 291 291 296 304 311 312 312 314 318 319 317 317 319 319 319 321 324 327 329 327 323 324 328 329 328 326 325 324 323 327 337 346 344 339 339 339 336 332 331 331 329 326 324 325 319 302 286
247 248 248 251 258 265 266 264 264 267 273 277 273 270 276 281 280 276 276 280 288 291 285 278 278 284 289 292 296 303 309 310 310 313 317 318 318 319 320 321 322 323 325 326 326 326 326 324 326 328 329 327 325 326 328 327 324 329 341 347 345 343 343 341 337 333 331 331 329 329 328 319 295 282
254 252 247 249 255 256 258 266 272 274 275 278 276 274 276 277 276 276 273 267 271 281 284 281 281 286 293 298 302 305 307 307 310 315 317 317 319 323 324 324 324 326 326 325 325 326 327 325 325 327 328 329 329 330 331 328 324 325 335 346 351 349 347 346 342 337 334 334 334 335 336 331 310 296
240 237 234 240 249 252 257 269 275 272 268 270 272 275 280 283 283 284 284 280 280 288 296 298 296 296 297 299 302 305 306 309 314 315 316 319 323 326 326 325 325 326 326 324 325 327 326 323 324 329 333 335 335 332 331 331 328 327 334 344 351 351 349 349 348 345 342 340 338 340 345 343 324 300
225 234 235 240 247 249 254 267 273 271 269 270 268 267 272 279 283 287 293 296 295 299 312 326 322 304 296 297 301 304 306 311 314 314 318 326 329 327 326 326 326 326 326 326 327 326 323 322 328 336 339 340 339 334 333 334 333 332 337 346 350 351 351 352 353 352 354 353 347 346 353 351 333 310
225 228 230 243 256 256 258 268 273 276 280 278 271 267 270 275 277 281 288 293 294 295 302 303 294 291 297 300 299 301 305 310 314 320 328 332 329 325 325 326 326 327 328 327 327 326 325 330 339 340 337 338 341 339 338 339 340 341 344 349 351 352 353 354 354 357 7 8 357 356 9 9 346 318
222 231 239 255 268 271 276 280 278 283 293 292 279 275 280 281 279 280 284 286 286 283 281 282 286 294 298 294 292 298 307 316 324 329 330 328 325 325 326 326 326 329 331 329 329 330 334 341 347 343 336 337 341 344 343 344 346 349 351 352 354 355 356 357 357 359 10 19 13 15 32 37 21 339
234 244 255 268 274 276 282 287 284 293 312 317 300 291 285 275 273 281 287 288 287 280 277 283 293 292 285 287 299 311 321 327 329 326 323 323 326 326 326 327 330 333 334 332 332 335 339 345 348 344 337 338 344 348 348 349 353 356 358 358 359 360 1 2 2 4 11 21 23 26 39 49 53 48
Height
1557 1558 1558 1559 1559 1559 1559 1560 1560 1560 1560 1561 1562 1562 1562 1562 1562 1562 1562 1561 1561 1561 1561 1561 1561 1560 1560 1559 1558 1558 1557 1557 1557 1556 1555 1555 1554 1553 1553 1552 1551 1550 1549 1549 1548 1548 1548 1548 1547 1546 1546 1545 1545 1545 1545 1545 1545 1545 1545 1545 1545 1545 1545 1545 1545 1545 1545 1545 1545 1545 1545 1546 1546 1546
1555 1556 1557 1557 1558 1558 1558 1559 1559 1559 1559 1559 1560 1560 1560 1560 1560 1561 1561 1560 1560 1560 1559 1560 1560 1559 1559 1558 1557 1557 1556 1555 1555 1555 1555 1554 1553 1553 1552 1551 1549 1548 1547 1546 1545 1545 1544 1544 1544 1543 1543 1543 1542 1542 1542 1542 1542 1542 1542 1542 1542 1541 1542 1542 1542 1542 1542 1542 1542 1542 1542 1542 1543 1543
1554 1554 1555 1556 1556 1557 1557 1557 1558 1558 1558 1558 1558 1558 1558 1559 1559 1559 1559 1558 1557 1558 1558 1558 1558 1558 1557 1557 1556 1555 1554 1553 1553 1553 1552 1552 1551 1551 1550 1549 1548 1547 1546 1544 1543 1542 1542 1541 1540 1540 1540 1539 1539 1539 1539 1539 1539 1539 1539 1539 1539 1538 1538 1538 1539 1539 1539 1539 1539 1539 1539 1539 1539 1539
1552 1553 1553 1554 1554 1554 1555 1556 1556 1557 1557 1557 1557 1557 1557 1557 1557 1558 1558 1556 1555 1556 1556 1556 1556 1556 1555 1554 1554 1553 1552 1551 1551 1550 1549 1548 1548 1547 1547 1546 1546 1545 1544 1543 1542 1541 1540 1539 1538 1537 1536 1536 1536 1536 1536 1536 1535 1535 1535 1535 1535 1535 1535 1535 1535 1535 1536 1536 1536 1536 1536 1536 1536 1536
1550 1550 1551 1552 1552 1552 1553 1553 1554 1554 1555 1555 1555 1555 1555 1555 1556 1556 1555 1554 1553 1553 1554 1554 1553 1553 1552 1552 1551 1550 1549 1549 1548 1547 1546 1545 1544 1544 1543 1542 1542 1541 1541 1540 1539 1538 1537 1537 1536 1535 1534 1533 1532 1532 1532 1532 1532 1531 1531 1531 1531 1532 1532 1532 1532 1532 1532 1532 1532 1532 1532 1532 1532 1532
1547 1548 1549 1549 1550 1551 1551 1551 1552 1552 1553 1553 1553 1553 1553 1553 1553 1554 1553 1552 1551 1550 1550 1551 1550 1550 1550 1549 1548 1548 1547 1547 1546 1545 1544 1542 1541 1540 1539 1539 1538 1537 1537 1536 1535 1535 1534 1534 1533 1532 1531 1530 1529 1529 1529 1528 1528 1527 1527 1527 1527 1528 1528 1528 1528 1528 1528 1529 1529 1529 1529 1529 1529 1529
1545 1545 1546 1547 1548 1549 1549 1549 1549 1550 1550 1550 1550 1550 1550 1550 1551 1551 1551 1550 1549 1547 1547 1547 1547 1547 1547 1546 1546 1546 1545 1545 1544 1542 1541 1540 1539 1537 1536 1535 1534 1534 1533 1533 1532 1532 1531 1531 1530 1529 1529 1528 1527 1526 1526 1525 1525 1524 1524 1524 1524 1524 1524 1524 1524 1524 1524 1525 1525 1525 1525 1525 1525 1525
1543 1543 1544 1545 1545 1546 1546 1547 1547 1548 1548 1548 1548 1548 1548 1548 1548 1549 1549 1548 1547 1546 1544 1544 1544 1544 1543 1543 1543 1543 1542 1541 1540 1539 1538 1537 1536 1535 1534 1533 1531 1531 1530 1530 1529 1529 1528 1528 1527 1527 1526 1525 1524 1523 1523 1522 1521 1521 1521 1520 1520 1520 1520 1520 1520 1520 1520 1520 1521 1521 1521 1521 1521 1521
1541 1541 1542 1543 1543 1543 1544 1545 1545 1546 1546 1546 1547 1547 1547 1547 1547 1546 1546 1546 1545 1544 1543 1542 1541 1541 1541 1540 1540 1540 1539 1538 1537 1536 1535 1534 1533 1532 1531 1530 1529 1528 1527 1527 1526 1525 1525 1524 1523 1523 1522 1521 1521 1520 1519 1519 1518 1518 1517 1517 1516 1516 1516 1516 1515 1515 1515 1516 1516 1516 1517 1517 1517 1516
1538 1539 1539 1540 1540 1541 1541 1542 1543 1544 1545 1545 1545 1545 1545 1545 1545 1544 1544 1543 1543 1542 1541 1540 1539 1539 1538 1537 1537 1537 1536 1535 1533 1532 1531 1531 1530 1529 1528 1527 1526 1525 1525 1524 1523 1523 1522 1521 1520 1519 1518 1518 1517 1516 1515 1515 1514 1514 1513 1513 1512 1512 1511 1511 1511 1511 1511 1511 1511 1511 1512 1512 1512 1511
1536 1536 1537 1538 1538 1538 1539 1540 1541 1542 1543 1543 1543 1544 1543 1543 1543 1542 1542 1541 1541 1540 1539 1538 1537 1536 1535 1535 1534 1533 1533 1532 1530 1529 1528 1527 1527 1526 1525 1524 1523 1523 1522 1521 1521 1520 1519 1517 1516 1515 1514 1514 1513 1512 1511 1510 1509 1509 1508 1508 1508 1507 1507 1506 1506 1506 1506 1506 1506 1506 1506 1506 1506 1506
1533 1534 1535 1535 1536 1536 1536 1537 1539 1540 1541 1541 1542 1542 1541 1541 1540 1540 1539 1539 1538 1537 1536 1535 1534 1533 1533 1532 1531 1531 1530 1529 1528 1527 1526 1525 1524 1523 1522 1521 1521 1520 1519 1518 1517 1516 1515 1514 1512 1511 1510 1510 1509 1507 1506 1505 1504 1504 1503 1503 1502 1502 1502 1501 1501 1501 1501 1500 1500 1500 1500 1501 1500 1500
1530 1532 1533 1533 1534 1535 1535 1535 1536 1538 1539 1539 1539 1539 1539 1538 1538 1537 1537 1536 1535 1534 1533 1532 1532 1531 1530 1529 1529 1528 1528 1527 1526 1525 1524 1522 1521 1520 1519 1518 1518 1517 1516 1514 1513 1512 1511 1509 1508 1507 1506 1505 1504 1503 1502 1501 1500 1499 1498 1498 1497 1497 1497 1496 1496 1496 1496 1495 1495 1495 1494 1494 1494 1494
1527 1529 1530 1532 1534 1534 1534 1534 1534 1535 1536 1537 1537 1537 1536 1536 1535 1534 1534 1533 1532 1531 1530 1530 1529 1528 1527 1526 1526 1526 1526 1525 1524 1523 1522 1520 1519 1518 1516 1514 1514 1514 1513 1511 1509 1508 1507 1505 1503 1502 1501 1500 1499 1498 1497 1496 1495 1494 1494 1493 1493 1492 1492 1491 1491 1491 1490 1490 1490 1489 1489 1489 1489 1488
1525 1526 1527 1529 1531 1532 1532 1532 1532 1533 1534 1534 1534 1534 1534 1534 1533 1532 1531 1530 1529 1529 1527 1527 1526 1525 1523 1523 1523 1523 1523 1522 1521 1520 1519 1518 1516 1515 1513 1511 1510 1511 1510 1508 1505 1503 1503 1502 1499 1497 1496 1495 1494 1493 1491 1490 1489 1489 1489 1489 1489 1488 1487 1487 1486 1486 1486 1485 1485 1484 1484 1483 1482 1482
1523 1524 1524 1525 1528 1529 1530 1530 1531 1531 1532 1532 1532 1532 1531 1531 1530 1529 1528 1528 1527 1526 1525 1524 1523 1521 1520 1520 1520 1520 1519 1518 1517 1517 1516 1515 1513 1512 1510 1508 1507 1507 1507 1505 1500 1497 1497 1497 1494 1491 1491 1490 1489 1488 1487 1486 1486 1485 1485 1485 1484 1484 1483 1482 1482 1481 1481 1480 1480 1479 1478 1477 1476 1475
1521 1522 1522 1523 1525 1526 1526 1528 1528 1528 1530 1530 1530 1529 1529 1528 1527 1527 1526 1525 1524 1523 1522 1520 1519 1518 1518 1517 1517 1517 1516 1515 1514 1514 1513 1512 1510 1509 1507 1505 1504 1504 1504 1502 1497 1491 1491 1492 1489 1486 1487 1486 1485 1484 1483 1482 1482 1481 1481 1481 1480 1479 1479 1478 1477 1477 1476 1475 1474 1473 1472 1471 1470 1469
1519 1520 1521 1521 1522 1522 1524 1525 1525 1526 1527 1527 1527 1526 1526 1525 1524 1524 1523 1522 1521 1520 1519 1517 1516 1516 1515 1515 1514 1514 1514 1513 1512 1511 1510 1508 1507 1505 1504 1502 1500 1500 1500 1498 1493 1486 1485 1487 1486 1483 1483 1482 1480 1480 1479 1478 1478 1478 1477 1477 1475 1474 1473 1472 1472 1471 1470 1469 1468 1467 1465 1464 1462 1461
1517 1517 1518 1519 1519 1521 1522 1523 1522 1523 1524 1524 1524 1524 1523 1522 1522 1521 1520 1519 1518 1517 1516 1515 1514 1513 1513 1512 1512 1511 1511 1510 1510 1508 1507 1505 1503 1501 1500 1498 1497 1496 1496 1496 1492 1484 1482 1484 1483 1480 1480 1479 1477 1476 1476 1475 1475 1474 1473 1472 1470 1469 1467 1466 1466 1465 1464 1463 1461 1459 1457 1455 1453 1451
1513 1514 1515 1516 1517 1519 1520 1520 1520 1520 1520 1520 1520 1520 1519 1519 1518 1518 1517 1516 1515 1515 1513 1512 1511 1511 1510 1510 1509 1509 1509 1508 1507 1505 1504 1502 1501 1499 1496 1494 1494 1493 1492 1493 1491 1484 1481 1482 1481 1478 1477 1476 1473 1472 1472 1470 1470 1469 1467 1466 1465 1463 1462 1461 1460 1459 1457 1455 1453 1450 1448 1446 1443 1441
1510 1511 1512 1514 1516 1516 1517 1517 1517 1518 1517 1518 1517 1517 1516 1515 1514 1514 1513 1513 1513 1512 1511 1510 1509 1508 1508 1508 1507 1507 1506 1505 1504 1502 1501 1500 1498 1496 1493 1491 1491 1490 1490 1489 1488 1483 1480 1479 1478 1475 1473 1472 1469 1467 1466 1466 1465 1463 1462 1461 1460 1459 1458 1456 1454 1452 1449 1447 1443 1440 1438 1436 1434 1432
1507 1508 1509 1511 1513 1514 1514 1514 1514 1514 1514 1515 1515 1514 1513 1512 1512 1511 1511 1511 1510 1509 1508 1507 1507 1506 1505 1504 1504 1503 1502 1502 1501 1500 1497 1497 1495 1493 1491 1490 1488 1487 1486 1486 1485 1481 1478 1476 1475 1472 1468 1465 1464 1463 1462 1461 1460 1459 1458 1457 1455 1454 1452 1450 1447 1444 1440 1437 1434 1431 1428 1426 1425 1423
1504 1505 1506 1508 1509 1510 1510 1511 1511 1512 1512 1512 1512 1511 1511 1510 1509 1509 1508 1508 1507 1506 1505 1504 1504 1503 1502 1501 1500 1500 1499 1499 1499 1497 1495 1494 1493 1491 1489 1488 1486 1483 1482 1483 1482 1478 1474 1473 1472 1470 1466 1460 1458 1458 1458 1456 1456 1455 1453 1452 1450 1448 1446 1443 1439 1436 1432 1428 1424 1421 1419 1417 1416 1414
1501 1502 1503 1504 1506 1507 1507 1507 1508 1509 1509 1509 1509 1508 1508 1507 1507 1506 1505 1505 1504 1503 1502 1502 1501 1500 1499 1499 1498 1497 1497 1497 1496 1495 1493 1492 1491 1489 1487 1485 1484 1481 1479 1479 1479 1475 1472 1470 1468 1467 1465 1460 1454 1452 1452 1452 1451 1450 1449 1447 1444 1442 1439 1435 1431 1427 1423 1419 1416 1413 1410 1409 1408 1407
1499 1500 1501 1502 1503 1504 1504 1505 1506 1506 1506 1506 1506 1505 1505 1504 1503 1502 1502 1501 1500 1500 1499 1498 1498 1497 1497 1496 1496 1495 1495 1495 1494 1493 1491 1490 1489 1487 1484 1482 1480 1477 1475 1475 1475 1472 1469 1467 1465 1463 1462 1459 1454 1450 1448 1447 1446 1446 1444 1442 1439 1436 1433 1428 1423 1419 1415 1411 1408 1406 1403 1401 1400 1399
1496 1497 1498 1499 1500 1501 1502 1503 1503 1503 1503 1503 1503 1503 1501 1500 1499 1498 1498 1497 1497 1496 1496 1495 1495 1494 1494 1494 1493 1493 1492 1492 1491 1490 1488 1487 1485 1484 1482 1480 1477 1474 1471 1471 1471 1469 1466 1464 1462 1460 1459 1456 1453 1449 1446 1442 1441 1440 1439 1437 1434 1431 1427 1422 1417 1411 1408 1405 1402 1399 1397 1395 1393 1392
1494 1495 1496 1497 1498 1498 1499 1500 1500 1500 1500 1500 1500 1499 1498 1497 1496 1495 1495 1494 1493 1493 1493 1492 1492 1492 1492 1491 1491 1490 1489 1488 1487 1485 1484 1483 1481 1479 1478 1476 1474 1471 1469 1467 1467 1466 1464 1462 1460 1458 1457 1454 1450 1447 1443 1440 1437 1435 1432 1430 1428 1425 1421 1416 1411 1405 1401 1399 1395 1392 1390 1388 1386 1384
1491 1492 1493 1494 1495 1496 1497 1497 1497 1497 1498 1497 1496 1495 1494 1494 1493 1492 1492 1491 1490 1490 1490 1489 1490 1490 1490 1489 1488 1487 1486 1485 1483 1482 1480 1479 1477 1475 1474 1472 1471 1469 1467 1466 1464 1463 1461 1459 1456 1455 1454 1452 1448 1445 1441 1438 1434 1431 1427 1423 1420 1418 1414 1410 1405 1400 1396 1393 1389 1386 1383 1380 1378 1376
1488 1489 1490 1492 1493 1494 1494 1495 1495 1495 1495 1494 1493 1492 1491 1491 1490 1490 1489 1488 1488 1487 1487 1487 1487 1487 1486 1486 1485 1484 1483 1481 1480 1478 1476 1475 1473 1472 1471 1470 1468 1467 1465 1463 1461 1459 1458 1456 1454 1452 1451 1449 1446 1443 1439 1435 1430 1428 1425 1420 1414 1411 1408 1405 1400 1395 1391 1387 1383 1380 1377 1374 1371 1369
1486 1487 1488 1489 1490 1491 1492 1493 1493 1493 1492 1492 1490 1489 1489 1488 1488 1487 1487 1486 1486 1485 1485 1485 1485 1484 1483 1483 1482 1481 1480 1478 1477 1475 1474 1473 1471 1470 1469 1467 1465 1463 1462 1460 1458 1456 1455 1454 1452 1451 1449 1446 1443 1440 1437 1433 1427 1423 1421 1417 1410 1404 1402 1399 1395 1390 1385 1381 1377 1373 1370 1367 1364 1362
1485 1486 1487 1488 1489 1490 1490 1491 1490 1490 1489 1489 1488 1488 1487 1487 1486 1486 1485 1484 1484 1483 1483 1483 1482 1481 1481 1480 1479 1478 1477 1475 1475 1474 1473 1471 1469 1468 1467 1465 1462 1460 1458 1457 1456 1455 1453 1452 1451 1449 1446 1443 1440 1437 1435 1431 1426 1420 1416 1412 1407 1401 1396 1393 1388 1383 1380 1375 1370 1366 1363 1359 1356 1354
1484 1485 1485 1486 1487 1488 1488 1488 1488 1487 1487 1487 1486 1486 1486 1485 1484 1484 1483 1482 1482 1482 1482 1481 1480 1479 1478 1478 1477 1476 1475 1474 1473 1472 1471 1470 1468 1466 1465 1462 1460 1457 1455 1454 1453 1452 1451 1449 1448 1446 1443 1440 1437 1434 1431 1428 1423 1418 1412 1407 1404 1398 1393 1388 1383 1377 1374 1370 1364 1359 1355 1352 1349 1347
1482 1483 1484 1485 1485 1485 1485 1485 1485 1485 1485 1485 1484 1484 1484 1483 1482 1482 1481 1481 1481 1481 1480 1479 1478 1477 1476 1476 1475 1474 1473 1472 1471 1471 1470 1468 1466 1464 1463 1461 1458 1456 1454 1452 1450 1449 1447 1446 1444 1442 1440 1437 1434 1432 1429 1424 1419 1415 1410 1404 1399 1394 1388 1384 1379 1373 1369 1365 1359 1353 1348 1344 1342 1340
1480 1481 1482 1483 1483 1483 1483 1483 1483 1483 1483 1482 1482 1481 1481 1481 1481 1480 1480 1480 1480 1480 1479 1477 1476 1475 1475 1474 1473 1472 1471 1470 1470 1469 1467 1466 1464 1463 1461 1459 1457 1455 1453 1451 1448 1446 1444 1443 1441 1438 1435 1433 1430 1428 1426 1422 1417 1412 1408 1403 1397 1390 1384 1379 1374 1369 1365 1361 1356 1350 1343 1338 1335 1334
1479 1480 1481 1482 1482 1483 1483 1482 1482 1482 1481 1481 1481 1480 1480 1480 1480 1479 1479 1478 1478 1478 1477 1476 1475 1474 1473 1472 1472 1471 1470 1469 1468 1467 1465 1464 1463 1461 1460 1458 1456 1454 1452 1449 1447 1445 1442 1440 1438 1435 1431 1428 1425 1422 1421 1420 1416 1410 1405 1400 1394 1388 1381 1375 1369 1364 1360 1356 1352 1347 1341 1333 1328 1328
1478 1479 1480 1480 1481 1481 1481 1481 1481 1481 1480 1480 1480 1480 1480 1479 1478 1477 1477 1476 1476 1476 1475 1474 1473 1472 1472 1471 1470 1470 1469 1468 1466 1465 1464 1463 1461 1460 1458 1456 1454 1452 1450 1448 1445 1443 1440 1438 1436 1433 1429 1426 1422 1417 1414 1414 1413 1409 1403 1396 1391 1385 1379 1371 1366 1361 1356 1352 1348 1344 1339 1331 1324 1323
1476 1477 1478 1478 1479 1479 1479 1479 1480 1479 1478 1478 1478 1478 1478 1477 1477 1476 1475 1474 1473 1473 1472 1472 1472 1471 1470 1470 1469 1468 1467 1466 1465 1464 1462 1461 1460 1458 1456 1454 1452 1451 1449 1446 1444 1441 1439 1437 1435 1432 1428 1425 1421 1416 1411 1408 1408 1407 1402 1395 1388 1383 1377 1369 1362 1356 1353 1349 1345 1340 1334 1327 1320 1319
1474 1475 1476 1476 1477 1477 1477 1477 1477 1476 1475 1475 1475 1475 1475 1474 1475 1474 1473 1471 1471 1471 1471 1471 1470 1470 1469 1469 1468 1467 1466 1465 1464 1463 1461 1460 1458 1457 1455 1453 1451 1449 1447 1444 1442 1440 1438 1436 1434 1432 1428 1424 1421 1416 1410 1405 1402 1402 1400 1395 1388 1381 1375 1368 1361 1354 1348 1344 1340 1335 1330 1324 1318 1316
1472 1473 1474 1474 1475 1475 1474 1474 1474 1473 1473 1473 1473 1473 1472 1472 1472 1472 1470 1470 1470 1470 1470 1469 1469 1468 1468 1467 1466 1466 1465 1464 1463 1461 1460 1459 1457 1455 1453 1451 1449 1447 1445 1443 1441 1439 1437 1435 1433 1430 1428 1424 1420 1416 1412 1407 1402 1399 1397 1394 1389 1381 1374 1368 1361 1354 1347 1341 1336 1329 1324 1319 1315 1314
1470 1471 1472 1472 1473 1472 1472 1472 1471 1471 1471 1471 1471 1470 1470 1470 1470 1469 1468 1468 1469 1469 1468 1468 1467 1466 1466 1466 1465 1465 1464 1463 1462 1460 1459 1457 1455 1453 1452 1450 1448 1446 1444 1442 1440 1437 1435 1434 1432 1429 1426 1423 1419 1415 1411 1407 1402 1398 1395 1393 1388 1382 1375 1368 1361 1355 1348 1342 1336 1329 1322 1317 1314 1312
1469 1469 1470 1470 1470 1470 1470 1470 1470 1469 1469 1469 1469 1469 1468 1468 1468 1467 1467 1467 1467 1468 1467 1466 1465 1465 1465 1465 1464 1464 1462 1461 1460 1459 1457 1455 1454 1452 1451 1449 1447 1445 1443 1440 1438 1436 1434 1432 1430 1427 1424 1421 1417 1413 1409 1405 1400 1396 1392 1389 1386 1381 1376 1369 1362 1356 1349 1343 1337 1329 1322 1316 1313 1311
1467 1468 1468 1468 1468 1469 1469 1469 1468 1468 1468 1468 1467 1467 1466 1466 1466 1466 1466 1466 1466 1466 1466 1465 1464 1464 1464 1464 1463 1462 1461 1460 1459 1457 1456 1454 1452 1451 1449 1448 1446 1444 1442 1439 1437 1434 1432 1430 1427 1425 1422 1419 1416 1412 1407 1404 1399 1394 1390 1385 1382 1378 1373 1367 1361 1356 1350 1344 1339 1332 1324 1318 1314 1311
1466 1466 1466 1466 1467 1467 1467 1467 1467 1466 1467 1466 1466 1465 1465 1465 1465 1465 1465 1465 1465 1465 1465 1464 1464 1463 1463 1463 1462 1461 1460 1459 1457 1456 1454 1453 1452 1450 1448 1447 1445 1443 1440 1438 1436 1433 1430 1427 1425 1423 1421 1418 1415 1411 1407 1403 1399 1394 1389 1383 1378 1374 1369 1363 1358 1354 1349 1345 1341 1337 1331 1326 1320 1315
1464 1464 1464 1465 1465 1465 1466 1466 1465 1465 1464 1464 1463 1463 1464 1464 1464 1464 1464 1464 1464 1464 1464 1463 1463 1463 1462 1461 1460 1459 1458 1457 1456 1454 1453 1452 1451 1449 1448 1446 1444 1442 1439 1437 1434 1431 1428 1426 1423 1422 1420 1417 1414 1411 1406 1402 1398 1394 1389 1384 1378 1372 1366 1359 1354 1350 1347 1343 1341 1338 1333 1327 1323 1317
1462 1463 1463 1464 1464 1464 1464 1464 1464 1463 1463 1462 1462 1463 1463 1462 1463 1463 1463 1463 1463 1463 1463 1462 1462 1461 1461 1459 1458 1458 1457 1456 1455 1454 1452 1451 1450 1448 1447 1445 1443 1441 1438 1436 1433 1430 1427 1425 1423 1421 1420 1417 1413 1410 1406 1402 1398 1394 1389 1384 1378 1372 1366 1359 1353 1348 1345 1341 1339 1337 1332 1326 1321 1317